Ashland, WI

1:43 PM CDT on September 26, 2017 (GMT -0500)
Kennedy Memorial

Weather History for KASX - October, 2012

Change the Weather History Date:

Tuesday, October 2, 2012

  Actual Average Record
Temperature  
Mean Temperature 50 °F -  
Max Temperature 66 °F 63 °F 88 °F (1992)
Min Temperature 33 °F 38 °F 22 °F (1961)
Degree Days  
Heating Degree Days 16    
Moisture  
Dew Point 39 °F    
Average Humidity 85    
Maximum Humidity 100    
Minimum Humidity 43    
Precipitation  
Precipitation 0.00 in - - ()
Sea Level Pressure  
Sea Level Pressure 29.94 in    
Wind  
Wind Speed 3 mph (West)    
Max Wind Speed 10 mph    
Max Gust Speed -    
Visibility 6 miles    
Events Fog    
Averages and records for this station are not official NWS values.
T = Trace of Precipitation, MM = Missing Value Source: NWS Daily Summary

Daily Weather History Graph

Daily Weather History Graph

Search for Another Location

Airport or City:

Trip Planner

Search our weather history database for the weather conditions in past years. The results will help you decide how hot, cold, wet, or windy it might be!

Date:

Astronomy

Oct. 02, 2012 Rise Set
Actual Time 7:04 AM CDT 6:40 PM CDT
Civil Twilight 6:34 AM CDT 7:10 PM CDT
Nautical Twilight 5:59 AM CDT 7:45 PM CDT
Astronomical Twilight 5:23 AM CDT 8:20 PM CDT
Moon 7:40 PM CDT (10/2) 9:43 AM CDT (10/2)
Length of Visible Light 12h 36m
Length of Day
11h 36m
Waning Gibbous, 94% of the Moon is Illuminated
Oct 2
Waning Gibbous
Oct 8
Last Quarter
Oct 15
New
Oct 21
First Quarter
Oct 29
Full

Hourly Weather History & Observations

Time (CDT) Temp. Windchill Dew Point Humidity Pressure Visibility Wind Dir Wind Speed Gust Speed Precip Events Conditions
12:53 AM 39.0 °F 35.7 °F 39.0 °F 100% 29.96 in 10.0 mi NNW 4.6 mph - N/A   Clear
1:53 AM 42.1 °F - 39.9 °F 92% 29.96 in 10.0 mi Calm Calm - N/A   Clear
2:53 AM 39.9 °F - 37.9 °F 93% 29.96 in 10.0 mi Calm Calm - N/A   Clear
3:53 AM 35.1 °F - 34.0 °F 96% 29.97 in 7.0 mi Calm Calm - N/A   Clear
4:53 AM 33.1 °F - 33.1 °F 100% 29.99 in 10.0 mi Calm Calm - N/A   Clear
5:22 AM 33.8 °F 30.8 °F 33.8 °F 100% 29.97 in 3.0 mi WSW 3.5 mph - N/A   Clear
6:53 AM 35.1 °F - 34.0 °F 96% 30.01 in 6.0 mi Calm Calm - N/A   Clear
7:05 AM 35.6 °F 32.8 °F 33.8 °F 93% 29.99 in 1.8 mi SW 3.5 mph - N/A   Clear
7:16 AM 33.8 °F - 30.2 °F 87% 29.99 in 3.0 mi Calm Calm - N/A   Clear
7:53 AM 36.0 °F 32.1 °F 36.0 °F 100% 30.02 in 7.0 mi SW 4.6 mph - N/A   Clear
8:53 AM 48.0 °F - 43.0 °F 83% 30.01 in 10.0 mi Calm Calm - N/A   Clear
9:53 AM 55.0 °F - 46.0 °F 72% 30.01 in 10.0 mi South 4.6 mph - N/A   Clear
10:53 AM 60.1 °F - 41.0 °F 49% 29.99 in 10.0 mi Variable 4.6 mph - N/A   Clear
11:53 AM 62.1 °F - 39.0 °F 43% 29.98 in 10.0 mi Calm Calm - N/A   Clear
1:53 PM 64.9 °F - 44.1 °F 47% 29.93 in 10.0 mi North 10.4 mph - N/A   Clear
2:53 PM 66.0 °F - 46.0 °F 48% 29.91 in 10.0 mi NE 9.2 mph - N/A   Clear
3:53 PM 64.0 °F - 44.1 °F 48% 29.90 in 10.0 mi ENE 10.4 mph - N/A   Clear
4:53 PM 63.0 °F - 44.1 °F 50% 29.89 in 10.0 mi NNE 6.9 mph - N/A   Clear
5:53 PM 57.9 °F - 44.1 °F 60% 29.90 in 10.0 mi NE 5.8 mph - N/A   Clear
6:53 PM 51.1 °F - 43.0 °F 74% 29.91 in 10.0 mi East 4.6 mph - N/A   Clear
7:53 PM 44.1 °F - 42.1 °F 93% 29.91 in 10.0 mi Calm Calm - N/A   Clear
8:53 PM 42.1 °F - 39.9 °F 92% 29.90 in 10.0 mi Calm Calm - N/A   Clear
9:53 PM 41.0 °F - 41.0 °F 100% 29.90 in 5.0 mi Calm Calm - N/A   Clear
10:00 PM 41.0 °F - 39.2 °F 93% 29.89 in 1.5 mi Calm Calm - N/A   Clear
10:11 PM 39.2 °F - 39.2 °F 100% 29.89 in 0.5 mi Calm Calm - N/A Fog Fog
10:23 PM 41.0 °F 38.0 °F 39.2 °F 93% 29.89 in 2.5 mi WNW 4.6 mph - N/A   Clear
10:35 PM 41.0 °F 39.0 °F 39.2 °F 93% 29.90 in 1.0 mi West 3.5 mph - N/A   Clear
10:53 PM 42.1 °F 40.2 °F 41.0 °F 96% 29.91 in 0.8 mi SW 3.5 mph - N/A   Clear
11:00 PM 41.0 °F - 39.2 °F 93% 29.90 in 0.8 mi Calm Calm - N/A   Mist
11:04 PM 41.0 °F 39.0 °F 39.2 °F 93% 29.90 in 1.2 mi SSW 3.5 mph - N/A   Partly Cloudy
11:08 PM 39.2 °F 37.0 °F 39.2 °F 100% 29.89 in 4.0 mi SSW 3.5 mph - N/A   Partly Cloudy
11:29 PM 39.2 °F - 39.2 °F 100% 29.90 in 1.8 mi Calm Calm - N/A   Clear
11:42 PM 37.4 °F - 35.6 °F 93% 29.90 in 0.8 mi Calm Calm - N/A   Clear
11:53 PM 39.0 °F - 37.0 °F 93% 29.92 in 1.2 mi Calm Calm - N/A   Clear
11:58 PM 35.6 °F - 35.6 °F 100% 29.91 in 3.0 mi Calm Calm - N/A   Clear